THOR ABLESTAR DEB, 335

Orbit data source: Space-Track

THOR ABLESTAR DEB, 335 is space debris in LEO originally from a launch on Thu, 29 Jun 1961 UTC launched from the Air Force Eastern Test Range (AFETR). Debris objects in space refer to the collection of defunct objects orbiting the Earth. Examples of debris include non-operational satellites, rocket bodies, and fragments generated from explosions, collisions, or faulty payload assembly.

Loading next visibility...
Identifier
335, 1961-015DM
Orbit
LEO
Country
Flag of USUS
Related business
Manufacturer
Unknown
Mission
Spacecraft
Bus & Motor
Unknown
Mass
Unknown
Launch date (UTC)
1961-06-29 (65 years ago)
Launch vehicle
Unknown
Launch site
Air Force Eastern Test Range (AFETR)
Object type
Payload
Rocket body
Debris
Shape & HBR
Unknown shape, 0.1 m
Radar Cross Section
Small (<0.1 m²)

Expand to show TLE details & history
Last TLE update: 13 hours ago

TLE from 13 hours ago
0 THOR ABLESTAR DEB
1   335U 61015DM  26126.58787572  .00000941  00000-0  45119-3 0  9997
2   335  66.8396 236.5502 0040147 211.0137 148.8588 14.22898604321399
Epoch: 2026-05-06T14:06Z
TLE epoch observation values (Epoch: 2026-05-06T14:06:32.462Z)
Latitude
-0.00003°
Longitude
160.46871°
Altitude
842.43 km
Speed
7.419 km/s
True Right ascension
15h 46m 12s
True Declination
0° 00' 00"
Sunlit
Object was in full shadow at epoch
Visualization orbit readout
Latitude
Unknown
Longitude
Unknown
Altitude
Unknown
Speed
Unknown
Apparent Right ascension
Unknown
Apparent Declination
Unknown
Sunlit
N/A
Visualization observer readout
Local Sidereal Time
10:45:41
Azimuth
Unknown
Elevation
Unknown
Doppler factor
Unknown
Orbital elements
Apogee altitude
842.805 km
Perigee altitude
785.057 km
Semi-major axis
7,192.068 km
Eccentricity
0.00401
Inclination
66.8396°
RAAN
236.5502°
Arg. of periapsis
211.0137°
True anomaly
149.0957°
Mean anomaly
148.8588°
Eccentric anomaly
148.97735°
Mean motion
3.55846 °/min
Orbital period
101.17 mins
BSTAR
0.00045119
Loading maneuver chart data...
Computing Atmospheric mass density...
Loading historical data...
Loading historical data...
Loading historical data...
Loading historical data...
Loading historical data...
Loading historical data...
Loading historical data...

Documentation

Showing up to 5 results
|